Kremmling, CO

8:49 AM MDT on June 23, 2017 (GMT -0600)
Kremmling

Weather History for K20V - October, 2012

Change the Weather History Date:

Thursday, October 11, 2012

  Actual Average Record
Temperature  
Mean Temperature 52 °F -  
Max Temperature 73 °F - 75 °F (2015)
Min Temperature 30 °F - 21 °F (2003)
Degree Days  
Heating Degree Days 14    
Month to date heating degree days  
Cooling Degree Days 0    
Month to date cooling degree days  
Growing Degree Days 2 (Base 50)    
Moisture  
Dew Point 20 °F    
Average Humidity 37    
Maximum Humidity 64    
Minimum Humidity 10    
Precipitation  
Precipitation 0.00 in - 0.33 in (2016)
Sea Level Pressure  
Sea Level Pressure 30.20 in    
Wind  
Wind Speed 2 mph (NW)    
Max Wind Speed 14 mph    
Max Gust Speed 25 mph    
Visibility 10 miles    
Events      
T = Trace of Precipitation, MM = Missing Value Source: NWS Daily Summary

Daily Weather History Graph

Daily Weather History Graph

Search for Another Location

Airport or City:

Trip Planner

Search our weather history database for the weather conditions in past years. The results will help you decide how hot, cold, wet, or windy it might be!

Date:

Astronomy

Oct. 11, 2012 Rise Set
Actual Time 7:12 AM MDT 6:31 PM MDT
Civil Twilight 6:45 AM MDT 6:58 PM MDT
Nautical Twilight 6:13 AM MDT 7:29 PM MDT
Astronomical Twilight 5:42 AM MDT 8:00 PM MDT
Moon 2:53 AM MDT (10/11) 4:09 PM MDT (10/11)
Length of Visible Light 12h 13m
Length of Day
11h 18m
Waning Crescent, 18% of the Moon is Illuminated
Oct 11
Waning Crescent
Oct 15
New
Oct 21
First Quarter
Oct 29
Full
Nov 6
Last Quarter

Hourly Weather History & Observations

Time (MDT) Temp. Windchill Dew Point Humidity Pressure Visibility Wind Dir Wind Speed Gust Speed Precip Events Conditions
12:29 AM 41.0 °F - 21.2 °F 45% 30.18 in 10.0 mi Calm Calm - N/A   Overcast
12:55 AM 41.0 °F - 21.2 °F 45% 30.18 in 10.0 mi Calm Calm - N/A   Overcast
1:02 AM 41.0 °F - 21.2 °F 45% 30.18 in 10.0 mi Calm Calm - N/A   Overcast
1:22 AM 41.0 °F - 21.2 °F 45% 30.18 in 10.0 mi Calm Calm - N/A   Scattered Clouds
1:55 AM 37.4 °F - 21.2 °F 52% 30.19 in 10.0 mi Calm Calm - N/A   Clear
2:12 AM 37.4 °F - 21.2 °F 52% 30.19 in 10.0 mi Calm Calm - N/A   Clear
2:29 AM 35.6 °F - 19.4 °F 52% 30.20 in 10.0 mi Calm Calm - N/A   Clear
2:49 AM 35.6 °F - 19.4 °F 52% 30.19 in 10.0 mi Calm Calm - N/A   Clear
3:15 AM 35.6 °F - 19.4 °F 52% 30.19 in 10.0 mi Calm Calm - N/A   Clear
3:35 AM 35.6 °F - 21.2 °F 56% 30.19 in 10.0 mi Calm Calm - N/A   Clear
3:53 AM 35.6 °F - 21.2 °F 56% 30.19 in 10.0 mi Calm Calm - N/A   Clear
4:15 AM 33.8 °F 30.8 °F 21.2 °F 60% 30.20 in 10.0 mi SE 3.5 mph - N/A   Clear
4:32 AM 33.8 °F - 19.4 °F 56% 30.20 in 10.0 mi Calm Calm - N/A   Clear
5:06 AM 32.0 °F - 19.4 °F 60% 30.22 in 10.0 mi Calm Calm - N/A   Clear
5:29 AM 32.0 °F - 19.4 °F 60% 30.22 in 10.0 mi Calm Calm - N/A   Clear
5:53 AM 32.0 °F - 19.4 °F 60% 30.22 in 10.0 mi Calm Calm - N/A   Clear
6:03 AM 32.0 °F - 19.4 °F 60% 30.22 in 10.0 mi Calm Calm - N/A   Clear
6:33 AM 30.2 °F - 19.4 °F 64% 30.24 in 10.0 mi Calm Calm - N/A   Clear
6:55 AM 30.2 °F - 17.6 °F 60% 30.24 in 10.0 mi Calm Calm - N/A   Clear
7:15 AM 30.2 °F - 19.4 °F 64% 30.24 in 10.0 mi Calm Calm - N/A   Clear
7:34 AM 30.2 °F - 19.4 °F 64% 30.24 in 10.0 mi Calm Calm - N/A   Clear
7:55 AM 30.2 °F - 19.4 °F 64% 30.25 in 10.0 mi Calm Calm - N/A   Clear
8:15 AM 33.8 °F - 21.2 °F 60% 30.25 in 10.0 mi Calm Calm - N/A   Clear
8:35 AM 35.6 °F - 21.2 °F 56% 30.26 in 10.0 mi Calm Calm - N/A   Clear
8:55 AM 37.4 °F - 21.2 °F 52% 30.26 in 10.0 mi Calm Calm - N/A   Clear
9:13 AM 41.0 °F - 21.2 °F 45% 30.26 in 10.0 mi Calm Calm - N/A   Clear
9:30 AM 41.0 °F - 21.2 °F 45% 30.26 in 10.0 mi Calm Calm - N/A   Clear
9:52 AM 42.8 °F - 21.2 °F 42% 30.25 in 10.0 mi Calm Calm - N/A   Clear
10:14 AM 48.2 °F - 23.0 °F 37% 30.25 in 10.0 mi Calm Calm - N/A   Clear
10:25 AM 50.0 °F - 21.2 °F 32% 30.25 in 10.0 mi WNW 3.5 mph - N/A   Clear
10:50 AM 51.8 °F - 21.2 °F 30% 30.24 in 10.0 mi Calm Calm - N/A   Clear
11:12 AM 53.6 °F - 21.2 °F 28% 30.24 in 10.0 mi West 3.5 mph - N/A   Clear
11:51 AM 60.8 °F - 21.2 °F 22% 30.22 in 10.0 mi Calm Calm - N/A   Clear
12:15 PM 64.4 °F - 21.2 °F 19% 30.20 in 10.0 mi Calm Calm - N/A   Clear
12:22 PM 64.4 °F - 21.2 °F 19% 30.20 in 10.0 mi SW 3.5 mph - N/A   Clear
12:55 PM 71.6 °F - 17.6 °F 13% 30.18 in 10.0 mi WSW 13.8 mph 18.4 mph N/A   Scattered Clouds
1:15 PM 69.8 °F - 17.6 °F 14% 30.17 in 10.0 mi South 11.5 mph 23.0 mph N/A   Mostly Cloudy
1:35 PM 71.6 °F - 15.8 °F 12% 30.16 in 10.0 mi SW 12.7 mph 25.3 mph N/A   Scattered Clouds
1:51 PM 71.6 °F - 15.8 °F 12% 30.15 in 10.0 mi SW 11.5 mph 20.7 mph N/A   Scattered Clouds
2:13 PM 73.4 °F - 14.0 °F 10% 30.14 in 10.0 mi SW 12.7 mph 17.3 mph N/A   Scattered Clouds
2:55 PM 71.6 °F - 17.6 °F 13% 30.14 in 10.0 mi NNW 6.9 mph - N/A   Scattered Clouds
3:10 PM 69.8 °F - 17.6 °F 14% 30.14 in 10.0 mi North 12.7 mph 18.4 mph N/A   Scattered Clouds
3:35 PM 69.8 °F - 17.6 °F 14% 30.15 in 10.0 mi NNW 5.8 mph - N/A   Scattered Clouds
4:15 PM 69.8 °F - 19.4 °F 15% 30.14 in 10.0 mi North 8.1 mph - N/A   Scattered Clouds
4:27 PM 69.8 °F - 17.6 °F 14% 30.14 in 10.0 mi North 6.9 mph - N/A   Clear
4:52 PM 69.8 °F - 19.4 °F 15% 30.14 in 10.0 mi North 8.1 mph - N/A   Scattered Clouds
5:12 PM 69.8 °F - 19.4 °F 15% 30.14 in 10.0 mi North 6.9 mph - N/A   Clear
5:35 PM 64.4 °F - 19.4 °F 18% 30.14 in 10.0 mi North 6.9 mph - N/A   Clear
5:54 PM 64.4 °F - 19.4 °F 18% 30.14 in 10.0 mi North 3.5 mph - N/A   Clear
6:14 PM 62.6 °F - 19.4 °F 19% 30.14 in 10.0 mi Calm Calm - N/A   Clear
6:35 PM 59.0 °F - 21.2 °F 23% 30.16 in 10.0 mi West 4.6 mph - N/A   Clear
7:15 PM 55.4 °F - 21.2 °F 26% 30.16 in 10.0 mi Calm Calm - N/A   Clear
7:31 PM 53.6 °F - 19.4 °F 26% 30.17 in 10.0 mi Calm Calm - N/A   Clear
7:51 PM 53.6 °F - 19.4 °F 26% 30.17 in 10.0 mi Calm Calm - N/A   Clear
8:15 PM 50.0 °F - 19.4 °F 30% 30.18 in 10.0 mi SE 4.6 mph - N/A   Clear
8:52 PM 51.8 °F - 21.2 °F 30% 30.19 in 10.0 mi Calm Calm - N/A   Scattered Clouds
9:15 PM 51.8 °F - 23.0 °F 33% 30.20 in 10.0 mi Calm Calm - N/A   Scattered Clouds
9:55 PM 50.0 °F - 23.0 °F 35% 30.21 in 10.0 mi Calm Calm - N/A   Clear
10:15 PM 50.0 °F - 21.2 °F 32% 30.21 in 10.0 mi Calm Calm - N/A   Clear
10:35 PM 48.2 °F - 24.8 °F 40% 30.21 in 10.0 mi Calm Calm - N/A   Clear
10:50 PM 46.4 °F - 21.2 °F 37% 30.21 in 10.0 mi Calm Calm - N/A   Clear
11:13 PM 46.4 °F 44.3 °F 23.0 °F 40% 30.21 in 10.0 mi North 4.6 mph - N/A   Clear
11:35 PM 50.0 °F - 28.4 °F 43% 30.21 in 10.0 mi Calm Calm - N/A   Clear
11:55 PM 46.4 °F 45.2 °F 26.6 °F 46% 30.21 in 10.0 mi NW 3.5 mph - N/A   Clear